SCP
-0 0 0 0 0 0 0 -0 -0 -0 -0 -0 -0 -0 -0 -0 -0 -0 -0 -0 -0 -0 0 0 0 0 0 0 0 0 0 0 0 0 -0 -0 -0 -0 -0 -0 -0 -0 -0
0 0 0 0 0 -0 -0 0 0 -0 -0 -0 -0 -0 -0 -0 -0 -0 -0 -0 -0 -0 0 -0 0 0 0 -0 -0 0 0 0 0 -0 -0 -0 -0 -0 -0 -0 -0 0 0
-0 0 0 0 0 0 -0 -0 0 -0 -0 -0 -0 -0 -0 -0 -0 -0 -0 -0 -0 -0 -0 -0 0 0 0 -0 -0 -0 -0 -0 -0 -0 -0 0 0 -0 -0 -0 -0 0 0
-0 -0 0 -0 -0 -0 -0 -0 -0 -0 -0 -0 -0 -0 -0 -0 -0 -0 -0 -0 -0 -0 -0 0 0 -0 -0 -0 -0 -0 0 0 0 -0 0 0 0 -0 -0 0 0 0 0
-0 -0 -0 -0 -0 -0 -0 -0 -0 -0 -0 -0 -0 -0 -0 -0 -0 -0 -0 0 -0 -0 -0 -0 -0 -0 -0 0 -0 0 0 0 -0 -0 -0 0 0 0 -0 -0 0 0 0
-0 -0 -0 -0 -0 -0 -0 -0 -0 -0 -0 -0 -0 -0 -0 -0 0 -0 -0 -0 0 -0 -0 -0 -0 -0 0 0 -0 -0 0 -0 -0 -0 -0 0 0 0 -0 0 0 0 0
-0 -0 -0 -0 -0 -0 -0 -0 -0 -0 -0 -0 -0 -0 -0 -0 0 -0 -0 -0 -0 -0 -0 -0 0 0 0 0 0 -0 -0 -0 -0 0 0 0 0 0 0 0 0 0 -0
-0 -0 -0 -0 -0 -0 -0 -0 -0 -0 -0 -0 -0 -0 -0 -0 0 -0 -0 -0 0 -0 -0 -0 0 0 -0 -0 -0 0 -0 -0 0 -0 0 -0 0 0 0 0 0 0 0
-0 -0 -0 -0 -0 -0 -0 -0 -0 -0 -0 -0 -0 -0 0 -0 0 0 0 -0 0 -0 0 -0 -0 -0 -0 0 0 0 -0 0 -0 -0 0 -0 0 -0 -0 -0 -0 0 0
-0 -0 -0 0 0 0 0 -0 -0 -0 -0 -0 -0 -0 -0 0 0 -0 0 -0 -0 0 -0 0 -0 -0 0 0 0 -0 0 0 0 -0 -0 -0 -0 -0 -0 -0 -0 -0 0
-0 -0 0 0 0 0 0 0 0 -0 -0 -0 -0 -0 -0 -0 -0 0 0 -0 0 0 0 -0 0 0 0 0 0 0 0 0 0 0 0 -0 -0 -0 -0 -0 -0 -0 0
-0 -0 -0 0 -0 0 0 0 0 0 0 0 0 0 -0 0 0 0 -0 0 0 -0 -0 0 0 0 0 -0 -0 0 -0 0 0 0 0 0 -0 -0 -0 -0 0 0 -0
-0 -0 -0 0 -0 0 -0 0 0 0 0 0 0 -0 0 0 0 0 0 -0 -0 0 -0 0 0 0 -0 -0 -0 0 0 0 0 0 0 0 0 0 0 0 0 0 0
-0 -0 -0 -0 -0 0 0 0 0 0 0 0 0 -0 0 0 0 0 0 0 0 -0 0 -0 -0 0 0 -0 -0 0 0 -0 0 0 0 0 0 0 0 0 0 0 0
-0 -0 -0 -0 -0 0 0 0 0 0 0 0 0 0 0 0 0 -0 0 0 0 0 0 0 0 0 -0 -0 -0 0 0 -0 -0 0 0 0 0 0 0 0 0 0 0
-0 -0 -0 -0 -0 0 0 0 0 0 0 0 0 -0 -0 0 0 0 0 0 0 0 0 0 0 0 0 -0 0 0 0 -0 0 0 0 0 0 0 0 0 0 0 0
-0 -0 -0 -0 -0 0 0 0 0 0 0 0 -0 0 0 0 0 0 0 0 0 0 0 0 0 0 0 0 0 0 -0 -0 0 0 0 0 0 0 0 0 0 0 0
-0 -0 -0 -0 0 0 0 0 0 0 0 0 -0 0 -0 0 0 0 0 0 0 0 0 0 -0 0 0 0 0 0 0 0 0 0 0 0 0 0 0 0 0 0 0
-0 -0 -0 -0 0 0 0 0 0 0 0 0 0 -0 -0 0 -0 0 0 0 0 0 0 0 0 0 0 0 0 0 0 0 0 0 0 0 0 0 0 0 0 0 0
-0 -0 -0 -0 -0 -0 0 0 0 0 0 0 0 -0 0 -0 0 0 0 0 0 0 0 0 0 0 0 0 0 0 0 0 0 0 0 0 0 0 0 0 0 0 0
-0 -0 -0 -0 -0 -0 0 0 0 0 0 0 0 0 0 0 -0 0 -0 0 0 0 0 0 0 -0 0 -0 0 0 -0 0 -0 0 0 0 0 0 0 0 0 0 0
-0 -0 -0 -0 -0 -0 0 -0 0 0 0 0 0 0 0 0 0 -0 -0 0 -0 -0 0 0 0 0 0 0 -0 0 -0 0 -0 0 0 0 0 0 0 0 0 0 0
-0 -0 -0 -0 -0 -0 0 -0 0 0 0 0 0 0 -0 -0 0 0 -0 -0 0 0 0 0 0 -0 -0 -0 -0 -0 0 0 0 0 0 0 0 0 0 0 0 0 0
-0 -0 -0 -0 -0 -0 -0 -0 -0 -0 -0 -0 0 0 -0 -0 -0 -0 0 0 0 0 0 0 0 -0 -0 -0 -0 0 0 0 0 0 0 0 0 0 0 0 0 -0 -0
-0 -0 -0 -0 -0 -0 -0 -0 -0 -0 -0 0 0 -0 -0 -0 -0 -0 0 0 -0 0 0 0 0 -0 0 0 0 0 0 0 0 0 0 -0 0 0 0 0 0 -0 -0
-1 -0 -0 -0 -0 -0 -0 -0 -0 -0 -0 0 -0 -0 -0 -0 -0 0 -0 -0 -0 -0 -0 -0 -0 -0 -0 0 -0 0 0 0 0 0 0 0 0 0 -0 -0 0 0 0
Wind_Speed_500mb
46 44 42 41 40 39 39 36 35 32 32 32 33 35 36 36 36 38 45 47 40 32 29 28 29 23 26 22 18 8 9 16 19 20 16 15 18 18 17 20 24 21 16
51 46 42 38 39 37 37 35 28 28 29 31 31 34 34 35 35 34 38 40 38 27 24 26 24 25 24 20 15 8 13 18 19 22 19 18 19 19 17 22 21 20 17
50 46 40 38 39 38 33 32 26 25 25 27 30 33 35 34 31 32 33 34 31 24 22 20 24 26 23 18 12 11 17 13 10 12 17 17 14 12 14 18 20 19 20
49 47 43 41 35 35 34 31 26 23 23 24 26 30 30 26 24 28 28 28 27 23 22 21 23 24 22 18 14 15 17 12 11 16 22 20 16 17 27 23 27 24 22
46 45 41 40 35 33 32 28 23 22 22 24 25 24 22 21 19 25 26 25 22 19 18 19 19 18 17 16 17 17 15 16 12 23 15 20 20 20 24 20 23 27 28
45 42 41 38 36 32 30 27 23 23 22 20 19 20 21 15 17 20 21 21 19 17 17 17 18 16 17 21 20 17 14 12 15 9 22 27 21 20 23 23 20 28 28
40 38 35 34 31 28 26 25 23 20 20 21 21 19 19 17 20 20 19 19 19 18 17 17 20 21 23 24 21 15 8 9 7 6 18 23 19 17 17 20 26 28 28
31 32 32 33 30 29 28 25 21 19 16 15 13 14 16 18 18 18 18 17 16 15 16 17 20 19 20 21 18 17 11 12 4 21 22 20 19 19 16 19 26 26 21
27 29 32 33 30 27 24 22 20 16 13 12 9 12 19 21 17 15 15 13 14 14 15 18 18 15 15 21 14 16 11 14 15 3 16 17 20 18 20 21 24 22 22
25 22 27 26 26 24 23 21 18 14 13 11 11 20 15 18 15 11 13 13 14 12 10 12 14 13 16 11 10 11 14 10 4 19 8 14 14 18 20 24 25 26 26
27 26 20 24 25 24 23 21 16 15 13 12 15 19 14 16 15 17 15 15 15 13 12 11 12 15 17 15 12 12 16 5 10 13 6 11 16 21 24 26 27 28 29
31 30 21 24 20 26 25 25 19 16 14 14 17 18 17 19 16 9 14 12 12 13 11 10 11 12 16 15 15 17 15 8 7 12 13 17 18 19 23 23 24 26 27
33 33 26 24 21 20 22 23 20 18 17 16 15 16 18 15 12 9 9 9 10 14 16 12 11 11 16 19 15 14 17 16 17 9 18 22 19 19 22 24 25 25 23
37 34 28 27 28 27 21 21 19 21 18 15 14 13 19 13 8 6 2 8 13 10 11 12 18 20 19 24 18 13 15 22 21 17 18 21 20 22 22 22 22 23 22
37 36 33 31 32 30 26 23 24 24 19 18 14 14 18 13 7 6 3 8 10 7 10 12 11 12 12 13 21 12 19 24 19 12 14 19 21 24 24 24 23 23 22
36 32 31 29 27 30 34 35 28 28 23 21 18 11 17 12 6 9 17 22 17 11 8 8 7 4 8 17 18 12 15 21 15 9 13 16 19 23 23 22 22 22 22
36 30 28 29 29 32 34 40 38 31 22 24 18 17 21 11 5 13 19 34 19 13 12 9 4 6 14 16 25 19 25 19 16 14 11 10 16 18 18 19 20 21 22
36 29 18 18 22 33 34 37 38 29 25 30 19 28 20 16 13 16 21 19 16 9 7 14 13 10 23 22 29 21 27 21 20 13 10 13 11 15 17 17 19 20 21
37 30 19 15 10 24 31 39 35 29 26 30 30 31 21 20 8 10 5 9 11 13 8 9 5 23 21 20 26 19 18 25 23 17 16 14 11 10 15 18 18 17 16
37 28 19 14 9 23 30 36 35 36 36 35 34 26 19 20 16 14 3 6 19 15 10 9 17 19 21 15 21 15 20 20 21 14 16 16 14 9 11 16 16 15 15
44 32 23 18 13 24 39 41 44 42 36 35 32 23 24 18 26 13 15 8 15 18 11 7 8 12 19 17 15 29 28 27 23 20 18 14 16 11 12 17 13 10 9
48 36 26 19 12 26 40 42 41 35 35 31 30 29 26 26 20 12 10 11 26 17 15 13 9 13 13 12 24 22 29 22 21 25 23 19 18 16 12 17 9 9 6
51 39 24 19 19 34 42 39 41 38 37 43 38 37 31 25 22 14 11 30 14 21 18 14 15 10 15 14 13 23 17 12 23 25 27 31 26 16 11 17 11 12 12
53 40 26 23 34 41 46 39 49 43 44 41 37 45 30 26 22 20 27 31 26 19 15 9 6 5 10 12 12 15 22 18 18 19 22 29 36 29 21 21 18 12 11
60 47 33 28 41 41 43 45 45 33 37 40 38 46 32 25 28 24 22 16 14 12 14 9 1 4 4 11 14 16 23 11 14 9 16 21 23 22 32 32 27 23 14
66 53 39 35 43 46 47 45 38 35 38 34 38 39 41 38 32 25 16 14 8 9 10 7 9 12 12 2 11 10 6 12 5 5 7 7 10 17 28 38 40 30 30
Wind_Direction_500mb
164 154 149 145 142 140 139 136 136 134 134 134 138 137 138 141 142 146 152 156 155 152 156 157 160 159 161 152 147 161 235 237 238 245 223 183 175 164 170 155 141 139 144
157 156 153 152 151 147 149 144 139 137 134 136 140 148 142 143 143 151 160 167 167 161 159 166 174 172 174 166 174 259 234 228 229 230 223 196 187 178 166 162 153 152 156
159 158 159 159 159 154 155 154 148 139 131 134 141 145 146 143 144 150 162 172 176 170 161 164 180 187 194 193 234 219 205 210 207 207 188 186 202 210 148 205 192 180 161
162 161 161 163 160 160 154 154 156 148 140 139 147 149 148 142 152 163 166 171 176 178 171 180 182 191 207 218 205 194 186 146 158 165 175 165 213 194 187 211 222 204 173
158 161 161 163 163 158 155 161 163 152 148 151 155 158 161 160 181 179 177 184 183 180 171 178 183 186 193 186 181 183 165 144 142 167 189 228 213 187 200 202 199 185 173
160 160 162 164 162 164 162 161 158 150 149 151 156 168 166 169 156 158 166 170 173 166 173 173 172 168 158 148 152 171 170 154 175 164 194 174 184 191 173 185 187 185 188
162 166 170 169 172 169 167 164 164 158 160 160 166 168 169 163 145 138 141 143 148 150 158 170 159 158 146 148 161 177 185 86 154 180 170 171 178 187 167 169 180 182 197
166 169 174 177 181 177 174 171 171 163 161 149 158 177 171 154 139 136 146 144 145 155 171 173 162 160 154 164 170 189 133 118 157 159 169 170 183 191 186 174 171 175 187
166 172 181 180 181 181 178 176 176 162 158 152 147 161 157 146 146 138 136 129 136 156 166 167 167 165 162 154 162 187 185 160 174 241 193 176 171 178 193 188 180 186 191
189 190 194 189 183 189 188 190 186 166 166 151 143 142 142 150 133 139 146 113 116 122 146 172 179 175 173 163 179 211 182 165 231 197 166 175 170 184 196 190 186 186 192
190 193 187 202 199 201 205 208 198 183 176 161 150 166 152 150 146 149 118 105 106 118 135 164 184 184 190 186 187 191 162 159 159 182 201 185 183 195 198 189 188 188 193
190 197 198 190 195 202 212 215 204 194 180 170 163 176 169 161 157 156 117 108 123 139 147 148 161 182 183 178 193 180 170 214 213 204 210 199 187 196 195 190 187 190 194
199 200 206 199 214 209 207 220 210 198 183 180 167 178 170 165 178 187 151 128 116 119 132 134 118 175 165 168 198 180 176 193 221 200 214 200 191 197 197 195 191 194 194
201 207 204 213 236 213 212 218 219 210 190 181 175 183 165 176 177 185 208 149 145 176 213 166 173 178 185 170 206 206 213 191 195 205 197 190 194 200 197 193 191 192 194
208 207 217 223 219 224 220 216 221 217 198 181 176 177 177 190 184 333 12 181 198 180 194 174 206 192 197 196 186 176 173 177 175 196 187 187 194 197 195 187 184 184 184
199 206 216 220 221 227 232 225 242 226 202 199 186 181 188 216 203 323 168 120 121 138 161 115 68 220 186 176 183 195 187 166 159 151 173 179 188 190 187 178 178 177 176
190 193 209 223 229 230 231 231 225 218 199 198 191 200 169 208 159 147 119 178 148 152 183 166 78 179 158 152 168 180 169 150 151 123 94 168 173 180 184 176 175 171 167
189 189 198 207 230 228 216 208 208 200 198 195 201 171 155 181 109 107 115 130 134 142 125 106 143 127 170 174 176 179 177 171 168 143 131 103 153 174 175 171 168 167 167
186 194 200 204 238 212 203 199 195 192 189 184 174 156 165 164 174 185 97 81 110 135 132 82 147 137 150 170 152 177 191 189 180 174 168 143 130 133 170 166 166 172 177
193 204 204 211 218 197 185 184 185 171 161 160 160 151 165 159 135 166 151 87 135 116 126 153 113 127 167 169 170 174 180 187 183 190 170 160 166 130 136 156 158 170 187
198 207 209 222 210 193 180 179 174 170 165 156 147 163 156 154 156 166 296 152 151 143 140 137 156 122 143 162 183 192 192 197 202 190 203 189 179 168 158 164 155 144 154
201 203 209 216 215 188 176 173 171 163 172 167 153 165 162 160 161 163 117 145 153 151 149 137 148 125 162 176 196 178 180 196 200 206 203 208 209 214 195 188 199 206 181
202 207 212 206 185 174 172 169 168 168 166 165 169 168 168 160 161 130 165 149 142 129 134 115 137 150 126 87 156 197 165 172 180 201 210 227 234 221 215 208 205 214 218
205 205 206 195 171 163 174 182 178 175 171 164 166 174 178 170 168 154 135 162 148 124 131 135 111 88 123 155 102 149 203 186 183 198 208 208 212 229 215 227 230 224 220
203 207 205 194 175 173 171 176 182 189 177 171 170 174 189 177 177 173 174 174 186 176 159 161 146 267 155 105 99 109 96 133 197 218 185 223 215 229 229 229 238 239 222
203 204 203 198 185 175 171 180 184 180 184 191 183 172 173 187 186 190 184 199 227 230 222 187 218 253 274 216 147 130 51 75 249 264 145 31 187 220 237 233 232 241 237
Wind_Speed_850mb
46 44 42 41 40 39 39 36 35 32 32 32 33 35 36 36 36 38 45 47 40 32 29 28 29 23 26 22 18 8 9 16 19 20 16 15 18 18 17 20 24 21 16
51 46 42 38 39 37 37 35 28 28 29 31 31 34 34 35 35 34 38 40 38 27 24 26 24 25 24 20 15 8 13 18 19 22 19 18 19 19 17 22 21 20 17
50 46 40 38 39 38 33 32 26 25 25 27 30 33 35 34 31 32 33 34 31 24 22 20 24 26 23 18 12 11 17 13 10 12 17 17 14 12 14 18 20 19 20
49 47 43 41 35 35 34 31 26 23 23 24 26 30 30 26 24 28 28 28 27 23 22 21 23 24 22 18 14 15 17 12 11 16 22 20 16 17 27 23 27 24 22
46 45 41 40 35 33 32 28 23 22 22 24 25 24 22 21 19 25 26 25 22 19 18 19 19 18 17 16 17 17 15 16 12 23 15 20 20 20 24 20 23 27 28
45 42 41 38 36 32 30 27 23 23 22 20 19 20 21 15 17 20 21 21 19 17 17 17 18 16 17 21 20 17 14 12 15 9 22 27 21 20 23 23 20 28 28
40 38 35 34 31 28 26 25 23 20 20 21 21 19 19 17 20 20 19 19 19 18 17 17 20 21 23 24 21 15 8 9 7 6 18 23 19 17 17 20 26 28 28
31 32 32 33 30 29 28 25 21 19 16 15 13 14 16 18 18 18 18 17 16 15 16 17 20 19 20 21 18 17 11 12 4 21 22 20 19 19 16 19 26 26 21
27 29 32 33 30 27 24 22 20 16 13 12 9 12 19 21 17 15 15 13 14 14 15 18 18 15 15 21 14 16 11 14 15 3 16 17 20 18 20 21 24 22 22
25 22 27 26 26 24 23 21 18 14 13 11 11 20 15 18 15 11 13 13 14 12 10 12 14 13 16 11 10 11 14 10 4 19 8 14 14 18 20 24 25 26 26
27 26 20 24 25 24 23 21 16 15 13 12 15 19 14 16 15 17 15 15 15 13 12 11 12 15 17 15 12 12 16 5 10 13 6 11 16 21 24 26 27 28 29
31 30 21 24 20 26 25 25 19 16 14 14 17 18 17 19 16 9 14 12 12 13 11 10 11 12 16 15 15 17 15 8 7 12 13 17 18 19 23 23 24 26 27
33 33 26 24 21 20 22 23 20 18 17 16 15 16 18 15 12 9 9 9 10 14 16 12 11 11 16 19 15 14 17 16 17 9 18 22 19 19 22 24 25 25 23
37 34 28 27 28 27 21 21 19 21 18 15 14 13 19 13 8 6 2 8 13 10 11 12 18 20 19 24 18 13 15 22 21 17 18 21 20 22 22 22 22 23 22
37 36 33 31 32 30 26 23 24 24 19 18 14 14 18 13 7 6 3 8 10 7 10 12 11 12 12 13 21 12 19 24 19 12 14 19 21 24 24 24 23 23 22
36 32 31 29 27 30 34 35 28 28 23 21 18 11 17 12 6 9 17 22 17 11 8 8 7 4 8 17 18 12 15 21 15 9 13 16 19 23 23 22 22 22 22
36 30 28 29 29 32 34 40 38 31 22 24 18 17 21 11 5 13 19 34 19 13 12 9 4 6 14 16 25 19 25 19 16 14 11 10 16 18 18 19 20 21 22
36 29 18 18 22 33 34 37 38 29 25 30 19 28 20 16 13 16 21 19 16 9 7 14 13 10 23 22 29 21 27 21 20 13 10 13 11 15 17 17 19 20 21
37 30 19 15 10 24 31 39 35 29 26 30 30 31 21 20 8 10 5 9 11 13 8 9 5 23 21 20 26 19 18 25 23 17 16 14 11 10 15 18 18 17 16
37 28 19 14 9 23 30 36 35 36 36 35 34 26 19 20 16 14 3 6 19 15 10 9 17 19 21 15 21 15 20 20 21 14 16 16 14 9 11 16 16 15 15
44 32 23 18 13 24 39 41 44 42 36 35 32 23 24 18 26 13 15 8 15 18 11 7 8 12 19 17 15 29 28 27 23 20 18 14 16 11 12 17 13 10 9
48 36 26 19 12 26 40 42 41 35 35 31 30 29 26 26 20 12 10 11 26 17 15 13 9 13 13 12 24 22 29 22 21 25 23 19 18 16 12 17 9 9 6
51 39 24 19 19 34 42 39 41 38 37 43 38 37 31 25 22 14 11 30 14 21 18 14 15 10 15 14 13 23 17 12 23 25 27 31 26 16 11 17 11 12 12
53 40 26 23 34 41 46 39 49 43 44 41 37 45 30 26 22 20 27 31 26 19 15 9 6 5 10 12 12 15 22 18 18 19 22 29 36 29 21 21 18 12 11
60 47 33 28 41 41 43 45 45 33 37 40 38 46 32 25 28 24 22 16 14 12 14 9 1 4 4 11 14 16 23 11 14 9 16 21 23 22 32 32 27 23 14
66 53 39 35 43 46 47 45 38 35 38 34 38 39 41 38 32 25 16 14 8 9 10 7 9 12 12 2 11 10 6 12 5 5 7 7 10 17 28 38 40 30 30
Wind_Direction_850mb
164 154 149 145 142 140 139 136 136 134 134 134 138 137 138 141 142 146 152 156 155 152 156 157 160 159 161 152 147 161 235 237 238 245 223 183 175 164 170 155 141 139 144
157 156 153 152 151 147 149 144 139 137 134 136 140 148 142 143 143 151 160 167 167 161 159 166 174 172 174 166 174 259 234 228 229 230 223 196 187 178 166 162 153 152 156
159 158 159 159 159 154 155 154 148 139 131 134 141 145 146 143 144 150 162 172 176 170 161 164 180 187 194 193 234 219 205 210 207 207 188 186 202 210 148 205 192 180 161
162 161 161 163 160 160 154 154 156 148 140 139 147 149 148 142 152 163 166 171 176 178 171 180 182 191 207 218 205 194 186 146 158 165 175 165 213 194 187 211 222 204 173
158 161 161 163 163 158 155 161 163 152 148 151 155 158 161 160 181 179 177 184 183 180 171 178 183 186 193 186 181 183 165 144 142 167 189 228 213 187 200 202 199 185 173
160 160 162 164 162 164 162 161 158 150 149 151 156 168 166 169 156 158 166 170 173 166 173 173 172 168 158 148 152 171 170 154 175 164 194 174 184 191 173 185 187 185 188
162 166 170 169 172 169 167 164 164 158 160 160 166 168 169 163 145 138 141 143 148 150 158 170 159 158 146 148 161 177 185 86 154 180 170 171 178 187 167 169 180 182 197
166 169 174 177 181 177 174 171 171 163 161 149 158 177 171 154 139 136 146 144 145 155 171 173 162 160 154 164 170 189 133 118 157 159 169 170 183 191 186 174 171 175 187
166 172 181 180 181 181 178 176 176 162 158 152 147 161 157 146 146 138 136 129 136 156 166 167 167 165 162 154 162 187 185 160 174 241 193 176 171 178 193 188 180 186 191
189 190 194 189 183 189 188 190 186 166 166 151 143 142 142 150 133 139 146 113 116 122 146 172 179 175 173 163 179 211 182 165 231 197 166 175 170 184 196 190 186 186 192
190 193 187 202 199 201 205 208 198 183 176 161 150 166 152 150 146 149 118 105 106 118 135 164 184 184 190 186 187 191 162 159 159 182 201 185 183 195 198 189 188 188 193
190 197 198 190 195 202 212 215 204 194 180 170 163 176 169 161 157 156 117 108 123 139 147 148 161 182 183 178 193 180 170 214 213 204 210 199 187 196 195 190 187 190 194
199 200 206 199 214 209 207 220 210 198 183 180 167 178 170 165 178 187 151 128 116 119 132 134 118 175 165 168 198 180 176 193 221 200 214 200 191 197 197 195 191 194 194
201 207 204 213 236 213 212 218 219 210 190 181 175 183 165 176 177 185 208 149 145 176 213 166 173 178 185 170 206 206 213 191 195 205 197 190 194 200 197 193 191 192 194
208 207 217 223 219 224 220 216 221 217 198 181 176 177 177 190 184 333 12 181 198 180 194 174 206 192 197 196 186 176 173 177 175 196 187 187 194 197 195 187 184 184 184
199 206 216 220 221 227 232 225 242 226 202 199 186 181 188 216 203 323 168 120 121 138 161 115 68 220 186 176 183 195 187 166 159 151 173 179 188 190 187 178 178 177 176
190 193 209 223 229 230 231 231 225 218 199 198 191 200 169 208 159 147 119 178 148 152 183 166 78 179 158 152 168 180 169 150 151 123 94 168 173 180 184 176 175 171 167
189 189 198 207 230 228 216 208 208 200 198 195 201 171 155 181 109 107 115 130 134 142 125 106 143 127 170 174 176 179 177 171 168 143 131 103 153 174 175 171 168 167 167
186 194 200 204 238 212 203 199 195 192 189 184 174 156 165 164 174 185 97 81 110 135 132 82 147 137 150 170 152 177 191 189 180 174 168 143 130 133 170 166 166 172 177
193 204 204 211 218 197 185 184 185 171 161 160 160 151 165 159 135 166 151 87 135 116 126 153 113 127 167 169 170 174 180 187 183 190 170 160 166 130 136 156 158 170 187
198 207 209 222 210 193 180 179 174 170 165 156 147 163 156 154 156 166 296 152 151 143 140 137 156 122 143 162 183 192 192 197 202 190 203 189 179 168 158 164 155 144 154
201 203 209 216 215 188 176 173 171 163 172 167 153 165 162 160 161 163 117 145 153 151 149 137 148 125 162 176 196 178 180 196 200 206 203 208 209 214 195 188 199 206 181
202 207 212 206 185 174 172 169 168 168 166 165 169 168 168 160 161 130 165 149 142 129 134 115 137 150 126 87 156 197 165 172 180 201 210 227 234 221 215 208 205 214 218
205 205 206 195 171 163 174 182 178 175 171 164 166 174 178 170 168 154 135 162 148 124 131 135 111 88 123 155 102 149 203 186 183 198 208 208 212 229 215 227 230 224 220
203 207 205 194 175 173 171 176 182 189 177 171 170 174 189 177 177 173 174 174 186 176 159 161 146 267 155 105 99 109 96 133 197 218 185 223 215 229 229 229 238 239 222
203 204 203 198 185 175 171 180 184 180 184 191 183 172 173 187 186 190 184 199 227 230 222 187 218 253 274 216 147 130 51 75 249 264 145 31 187 220 237 233 232 241 237